Location: Appeville
(49.3218°N, 1.3427°W)
Time: 22:32:28
(UTC+00:00)

Cosmos 1452 Rocket - Pass Details

Date: 08 December 2019
Orbit: 767 x 774 km, 74.1° (Epoch: 24 January)

Event Time Altitude Azimuth Distance (km) Brightness Sun altitude
Rises 05:57:09 0° 198° (SSW) 3,234 6.7 -17.0°
Reaches altitude 10° 05:59:31 10° 197° (SSW) 2,312 6.0 -16.6°
Maximum altitude 06:04:46 81° 112° (ESE) 789 3.6 -15.8°
Drops below altitude 10° 06:10:05 10° 25° (NNE) 2,333 6.1 -15.0°
Sets 06:12:28 0° 25° (NNE) 3,265 6.9 -14.6°
